PRAETORIAN SDA_601

导读

PRAETORIAN SDA_602是美国于2025年9月10日发射的军事卫星,隶属于PRAETORIAN卫星星座,与多颗同系列卫星同步完成发射,目前运行在近地轨道。作为美国军事航天体系的组成部分,该卫星归属美国军方管理,填补了美军低轨星座布局的空白,服务于美国太空战略部署,强化其在太空领域的态势感知与军事应用能力,支撑其太空霸权布局。

Basic Information
目录编号:
65565
目录名称:
PRAETORIAN SDA_602
国际标识:
2025-203A
轨道中心:
EARTH
卫星名称:
PRAETORIAN SDA_602
卫星全名:
PRAETORIAN SDA_601
卫星状态:
在轨 (已飞行280 天)
发射日期:
2025-09-10 UTC
国别 :
美国 (US)
星等 :
--
Orbit Information
数据来源 国际轨道数据 AOE轨道数据
星历时间 2026-06-17T20:43:09+0800
5小时前
查看轨道信息
2026-06-17T03:00:00+0800
23小时前
查看轨道信息
半长轴 7326.661km 7326.655km
偏心率 0.0005789 0.0005064
轨道倾角 81.303° 81.296°
近地点辐角 182.973° 174.516°
升交点赤经 10.451° 11.130°
平近点角 177.139° 108.205°
近地点 944.282km 944.807km
远地点 952.766km 952.229km
周期 104.020分钟 104.020分钟
每日圈数 13.843428 13.843445
Detailed Information
使用方式:
暂无
2D Orbit Map
3D Orbit Map
Orbit Altitude Analysis Chart
Orbit Inclination Analysis Chart
Orbit Comprehensive Analysis Chart
View Comprehensive Chart